2021-10-04 00:03:15 r, 20.99m,0000000000Hz,0001342419c,0000002.913s, 026.1C,00002191
2021-10-04 00:13:14 r, 21.00m,0000000000Hz,0001355755c,0000002.942s, 025.7C,00002191
2021-10-04 00:23:14 r, 21.02m,0000000000Hz,0001378084c,0000002.991s, 025.4C,00002191
2021-10-04 00:33:15 r, 21.04m,0000000000Hz,0001393155c,0000003.023s, 025.1C,00002191
2021-10-04 00:43:14 r, 21.04m,0000000001Hz,0001394221c,0000003.026s, 025.1C,00002191
2021-10-04 00:53:15 r, 21.03m,0000000001Hz,0001390848c,0000003.018s, 024.8C,00002191
2021-10-04 01:03:14 r, 21.04m,0000000001Hz,0001403404c,0000003.046s, 024.8C,00002191
2021-10-04 01:13:14 r, 21.06m,0000000000Hz,0001421450c,0000003.085s, 024.4C,00002191
2021-10-04 01:23:14 r, 21.07m,0000000000Hz,0001438253c,0000003.121s, 024.1C,00002191
2021-10-04 01:33:15 r, 21.08m,0000000000Hz,0001448324c,0000003.143s, 023.8C,00002191
2021-10-04 01:43:14 r, 21.09m,0000000001Hz,0001460605c,0000003.170s, 023.5C,00002191
2021-10-04 01:53:14 r, 21.09m,0000000000Hz,0001463489c,0000003.176s, 023.2C,00002191
2021-10-04 02:03:15 r, 21.09m,0000000001Hz,0001459091c,0000003.166s, 022.8C,00002191
2021-10-04 02:13:14 r, 21.10m,0000000001Hz,0001472047c,0000003.195s, 022.8C,00002191
2021-10-04 02:23:14 r, 21.11m,0000000001Hz,0001495391c,0000003.245s, 022.5C,00002191
2021-10-04 02:33:15 r, 21.11m,0000000001Hz,0001486534c,0000003.226s, 022.5C,00002191
2021-10-04 02:43:14 r, 21.10m,0000000000Hz,0001469900c,0000003.190s, 022.2C,00002191
2021-10-04 02:53:14 r, 21.10m,0000000000Hz,0001470884c,0000003.192s, 021.9C,00002191
2021-10-04 03:03:16 r, 21.09m,0000000001Hz,0001458717c,0000003.166s, 021.9C,00002191
2021-10-04 03:13:14 r, 21.08m,0000000000Hz,0001448111c,0000003.143s, 021.5C,00002191
2021-10-04 03:23:14 r, 21.06m,0000000000Hz,0001422196c,0000003.086s, 021.5C,00002191
2021-10-04 03:33:16 r, 21.04m,0000000000Hz,0001408633c,0000003.057s, 021.2C,00002191
2021-10-04 03:43:14 r, 21.04m,0000000001Hz,0001408518c,0000003.057s, 020.9C,00002191
2021-10-04 03:53:14 r, 21.03m,0000000000Hz,0001400051c,0000003.038s, 020.9C,00002191
2021-10-04 04:03:15 r, 21.04m,0000000000Hz,0001402744c,0000003.044s, 020.6C,00002191
2021-10-04 04:13:14 r, 21.02m,0000000000Hz,0001392445c,0000003.022s, 020.6C,00002191
2021-10-04 04:23:14 r, 21.02m,0000000000Hz,0001388564c,0000003.013s, 020.3C,00002191
2021-10-04 04:33:15 r, 21.01m,0000000000Hz,0001374543c,0000002.983s, 019.9C,00002191
2021-10-04 04:43:14 r, 21.00m,0000000000Hz,0001366380c,0000002.965s, 019.9C,00002191
2021-10-04 04:53:14 r, 21.00m,0000000001Hz,0001362601c,0000002.957s, 019.9C,00002191
2021-10-04 05:03:15 r, 20.99m,0000000001Hz,0001348508c,0000002.926s, 019.6C,00002191
2021-10-04 05:13:14 r, 20.98m,0000000000Hz,0001336988c,0000002.901s, 019.6C,00002191
2021-10-04 05:23:14 r, 20.98m,0000000001Hz,0001334389c,0000002.896s, 019.0C,00002191
2021-10-04 05:33:16 r, 20.97m,0000000000Hz,0001321354c,0000002.868s, 019.0C,00002191
2021-10-04 05:43:14 r, 20.97m,0000000001Hz,0001310809c,0000002.845s, 018.6C,00002191
2021-10-04 05:53:14 r, 20.94m,0000000001Hz,0001286240c,0000002.791s, 018.3C,00002191
2021-10-04 06:03:16 r, 20.88m,0000000001Hz,0001214524c,0000002.636s, 018.0C,00002191
2021-10-04 06:13:14 r, 20.62m,0000000000Hz,0000957996c,0000002.079s, 018.0C,00002191
2021-10-04 06:23:14 r, 19.91m,0000000001Hz,0000501126c,0000001.088s, 018.0C,00002191
2021-10-04 06:33:15 r, 18.64m,0000000003Hz,0000156795c,0000000.340s, 017.7C,00002191
2021-10-04 06:43:14 r, 17.06m,0000000012Hz,0000036735c,0000000.080s, 017.7C,00002191
2021-10-04 06:53:14 r, 15.19m,0000000070Hz,0000006546c,0000000.014s, 017.4C,00002191
2021-10-04 07:03:15 r, 13.04m,0000000514Hz,0000000000c,0000000.000s, 017.0C,00002191
2021-10-04 07:13:14 r, 10.83m,0000003944Hz,0000000000c,0000000.000s, 016.7C,00002191
2021-10-04 07:23:14 r, 09.04m,0000020586Hz,0000000000c,0000000.000s, 016.7C,00002191
2021-10-04 07:33:16 r, 07.79m,0000064903Hz,0000000000c,0000000.000s, 016.7C,00002191
2021-10-04 07:43:14 r, 06.96m,0000138694Hz,0000000000c,0000000.000s, 016.7C,00002191
2021-10-04 07:53:14 r, 06.39m,0000234251Hz,0000000000c,0000000.000s, 017.0C,00002191
2021-10-04 08:03:16 r, 05.97m,0000346508Hz,0000000000c,0000000.000s, 017.0C,00002191
2021-10-04 08:13:14 r, 00.00m,0000466906Hz,0000000000c,0000000.000s, 018.0C,00002191
2021-10-04 08:23:14 r, 00.00m,0000572541Hz,0000000000c,0000000.000s, 019.0C,00002191
2021-10-04 08:33:15 r, 00.00m,0000597533Hz,0000000000c,0000000.000s, 020.3C,00002191
2021-10-04 08:43:15 r, 00.00m,0000597251Hz,0000000000c,0000000.000s, 021.5C,00002191
2021-10-04 08:53:14 r, 00.00m,0000597111Hz,0000000000c,0000000.000s, 022.5C,00002191
2021-10-04 09:03:16 r, 00.00m,0000597056Hz,0000000000c,0000000.000s, 023.8C,00002191
2021-10-04 09:13:16 r, 00.00m,0000596908Hz,0000000000c,0000000.000s, 025.1C,00002191
2021-10-04 09:23:14 r, 00.00m,0000596718Hz,0000000000c,0000000.000s, 026.4C,00002191
2021-10-04 09:33:15 r, 00.00m,0000596674Hz,0000000000c,0000000.000s, 027.7C,00002191
2021-10-04 09:43:15 r, 00.00m,0000596668Hz,0000000000c,0000000.000s, 028.6C,00002191
2021-10-04 09:53:14 r, 00.00m,0000596571Hz,0000000000c,0000000.000s, 029.0C,00002191
2021-10-04 10:03:16 r, 00.00m,0000596589Hz,0000000000c,0000000.000s, 029.0C,00002191
2021-10-04 10:13:15 r, 00.00m,0000596488Hz,0000000000c,0000000.000s, 029.6C,00002191
2021-10-04 10:23:14 r, 00.00m,0000596336Hz,0000000000c,0000000.000s, 030.9C,00002191
2021-10-04 10:33:16 r, 00.00m,0000596295Hz,0000000000c,0000000.000s, 031.9C,00002191
2021-10-04 10:43:15 r, 00.00m,0000596067Hz,0000000000c,0000000.000s, 032.8C,00002191
2021-10-04 10:53:14 r, 00.00m,0000595833Hz,0000000000c,0000000.000s, 035.1C,00002191
2021-10-04 11:03:15 r, 00.00m,0000595560Hz,0000000000c,0000000.000s, 036.7C,00002191
2021-10-04 11:13:15 r, 00.00m,0000595397Hz,0000000000c,0000000.000s, 038.3C,00002191
2021-10-04 11:23:14 r, 00.00m,0000595357Hz,0000000000c,0000000.000s, 038.6C,00002191
2021-10-04 11:33:16 r, 00.00m,0000595259Hz,0000000000c,0000000.000s, 038.6C,00002191
2021-10-04 11:43:15 r, 00.00m,0000595212Hz,0000000000c,0000000.000s, 039.3C,00002191
2021-10-04 11:53:14 r, 00.00m,0000595209Hz,0000000000c,0000000.000s, 039.9C,00002191
2021-10-04 12:03:16 r, 00.00m,0000595269Hz,0000000000c,0000000.000s, 039.3C,00002191
2021-10-04 12:13:15 r, 00.00m,0000595314Hz,0000000000c,0000000.000s, 039.3C,00002191
2021-10-04 12:23:14 r, 00.00m,0000595316Hz,0000000000c,0000000.000s, 039.0C,00002191
2021-10-04 12:33:17 r, 00.00m,0000595269Hz,0000000000c,0000000.000s, 039.0C,00002191
2021-10-04 12:43:15 r, 00.00m,0000595195Hz,0000000000c,0000000.000s, 040.2C,00002191
2021-10-04 12:53:14 r, 00.00m,0000595028Hz,0000000000c,0000000.000s, 040.6C,00002191
2021-10-04 13:03:15 r, 00.00m,0000595008Hz,0000000000c,0000000.000s, 040.9C,00002191
2021-10-04 13:13:15 r, 00.00m,0000594829Hz,0000000000c,0000000.000s, 042.5C,00002191
2021-10-04 13:23:14 r, 00.00m,0000594559Hz,0000000000c,0000000.000s, 044.1C,00002191
2021-10-04 13:33:16 r, 00.00m,0000594402Hz,0000000000c,0000000.000s, 045.7C,00002191
2021-10-04 13:43:15 r, 00.00m,0000594171Hz,0000000000c,0000000.000s, 047.0C,00002191
2021-10-04 13:53:14 r, 00.00m,0000594096Hz,0000000000c,0000000.000s, 047.7C,00002191
2021-10-04 14:03:15 r, 00.00m,0000593970Hz,0000000000c,0000000.000s, 048.0C,00002191
2021-10-04 14:13:17 r, 00.00m,0000593993Hz,0000000000c,0000000.000s, 048.3C,00002191
2021-10-04 14:23:14 r, 00.00m,0000593946Hz,0000000000c,0000000.000s, 048.6C,00002191
2021-10-04 14:33:17 r, 00.00m,0000593978Hz,0000000000c,0000000.000s, 048.3C,00002191
2021-10-04 14:43:15 r, 00.00m,0000594018Hz,0000000000c,0000000.000s, 047.7C,00002191
2021-10-04 14:53:14 r, 00.00m,0000593999Hz,0000000000c,0000000.000s, 048.0C,00002191
2021-10-04 15:03:15 r, 00.00m,0000594006Hz,0000000000c,0000000.000s, 048.0C,00002191
2021-10-04 15:13:16 r, 00.00m,0000593994Hz,0000000000c,0000000.000s, 048.3C,00002191
2021-10-04 15:23:14 r, 00.00m,0000593994Hz,0000000000c,0000000.000s, 048.3C,00002191
2021-10-04 15:33:16 r, 00.00m,0000594263Hz,0000000000c,0000000.000s, 047.0C,00002191
2021-10-04 15:43:15 r, 00.00m,0000594424Hz,0000000000c,0000000.000s, 046.0C,00002191
2021-10-04 15:53:14 r, 00.00m,0000594222Hz,0000000000c,0000000.000s, 047.0C,00002191
2021-10-04 16:03:15 r, 00.00m,0000594106Hz,0000000000c,0000000.000s, 047.7C,00002191
2021-10-04 16:13:17 r, 00.00m,0000594168Hz,0000000000c,0000000.000s, 047.3C,00002191
2021-10-04 16:23:14 r, 00.00m,0000594255Hz,0000000000c,0000000.000s, 047.0C,00002191
2021-10-04 16:33:17 r, 00.00m,0000594260Hz,0000000000c,0000000.000s, 046.4C,00002191
2021-10-04 16:43:15 r, 00.00m,0000594464Hz,0000000000c,0000000.000s, 045.7C,00002191
2021-10-04 16:53:14 r, 00.00m,0000594522Hz,0000000000c,0000000.000s, 045.1C,00002191
2021-10-04 17:03:15 r, 00.00m,0000594664Hz,0000000000c,0000000.000s, 044.4C,00002191
2021-10-04 17:13:16 r, 00.00m,0000594691Hz,0000000000c,0000000.000s, 043.8C,00002191
2021-10-04 17:23:14 r, 00.00m,0000594746Hz,0000000000c,0000000.000s, 043.5C,00002191
2021-10-04 17:33:16 r, 00.00m,0000594825Hz,0000000000c,0000000.000s, 042.8C,00002191
2021-10-04 17:43:15 r, 00.00m,0000594958Hz,0000000000c,0000000.000s, 042.2C,00002191
2021-10-04 17:53:14 r, 00.00m,0000594931Hz,0000000000c,0000000.000s, 041.2C,00002191
2021-10-04 18:03:14 r, 00.00m,0000595067Hz,0000000000c,0000000.000s, 040.6C,00002191
2021-10-04 18:13:17 r, 00.00m,0000500793Hz,0000000000c,0000000.000s, 039.6C,00002191
2021-10-04 18:23:14 r, 05.84m,0000388302Hz,0000000000c,0000000.000s, 039.0C,00002191
2021-10-04 18:33:14 r, 06.20m,0000281742Hz,0000000000c,0000000.000s, 037.7C,00002191
2021-10-04 18:43:15 r, 06.55m,0000203652Hz,0000000000c,0000000.000s, 036.0C,00002191
2021-10-04 18:53:14 r, 07.21m,0000110653Hz,0000000000c,0000000.000s, 034.8C,00002191
2021-10-04 19:03:14 r, 07.81m,0000063860Hz,0000000000c,0000000.000s, 033.5C,00002191
2021-10-04 19:13:15 r, 09.53m,0000013069Hz,0000000000c,0000000.000s, 032.8C,00002191
2021-10-04 19:23:14 r, 11.57m,0000001995Hz,0000000000c,0000000.000s, 031.9C,00002191
2021-10-04 19:33:14 r, 13.80m,0000000254Hz,0000000000c,0000000.000s, 031.2C,00002191
2021-10-04 19:43:16 r, 15.93m,0000000036Hz,0000012980c,0000000.028s, 030.6C,00002191
2021-10-04 19:53:14 r, 17.72m,0000000007Hz,0000067348c,0000000.146s, 029.9C,00002191
2021-10-04 20:03:14 r, 19.19m,0000000002Hz,0000259468c,0000000.563s, 029.6C,00002191
2021-10-04 20:13:17 r, 20.20m,0000000001Hz,0000655567c,0000001.423s, 029.3C,00002191
2021-10-04 20:23:14 r, 20.69m,0000000001Hz,0001016705c,0000002.206s, 029.0C,00002191
2021-10-04 20:33:14 r, 20.82m,0000000001Hz,0001152534c,0000002.501s, 028.6C,00002191
2021-10-04 20:43:15 r, 20.84m,0000000000Hz,0001176789c,0000002.554s, 028.3C,00002191
2021-10-04 20:53:14 r, 20.85m,0000000001Hz,0001182442c,0000002.566s, 028.0C,00002191
2021-10-04 21:03:14 r, 20.85m,0000000000Hz,0001195015c,0000002.593s, 028.0C,00002191
2021-10-04 21:13:15 r, 20.87m,0000000001Hz,0001207351c,0000002.620s, 028.3C,00002191
2021-10-04 21:23:14 r, 20.88m,0000000000Hz,0001218420c,0000002.644s, 028.0C,00002191
2021-10-04 21:33:14 r, 20.90m,0000000000Hz,0001239873c,0000002.691s, 028.0C,00002191
2021-10-04 21:43:16 r, 20.91m,0000000001Hz,0001249590c,0000002.712s, 028.0C,00002191
2021-10-04 21:53:14 r, 20.91m,0000000001Hz,0001259390c,0000002.733s, 027.7C,00002191
2021-10-04 22:03:14 r, 20.93m,0000000001Hz,0001274572c,0000002.766s, 027.7C,00002191
2021-10-04 22:13:17 r, 20.94m,0000000000Hz,0001291040c,0000002.802s, 027.3C,00002191
2021-10-04 22:23:14 r, 20.95m,0000000000Hz,0001297289c,0000002.815s, 027.3C,00002191
2021-10-04 22:33:14 r, 20.95m,0000000001Hz,0001307260c,0000002.837s, 027.0C,00002191
2021-10-04 22:43:17 r, 20.96m,0000000001Hz,0001314313c,0000002.852s, 027.0C,00002191
2021-10-04 22:53:14 r, 20.97m,0000000000Hz,0001321402c,0000002.868s, 027.0C,00002191
2021-10-04 23:03:14 r, 20.97m,0000000001Hz,0001326529c,0000002.879s, 027.0C,00002191
2021-10-04 23:13:15 r, 20.98m,0000000001Hz,0001335057c,0000002.897s, 026.7C,00002191
2021-10-04 23:23:14 r, 21.00m,0000000001Hz,0001350058c,0000002.930s, 026.7C,00002191
2021-10-04 23:33:14 r, 21.00m,0000000000Hz,0001359182c,0000002.950s, 026.7C,00002191
2021-10-04 23:43:15 r, 21.00m,0000000000Hz,0001359261c,0000002.950s, 026.4C,00002191
2021-10-04 23:53:14 r, 21.01m,0000000000Hz,0001367608c,0000002.968s, 026.1C,00002191
